Regional Weather Roundup
Issued by NWS

Home | Current Version | Previous Version | Graphics & Text | Print | Product List | Glossary On
Versions: 1 2 3 4 5 6 7 8 9 10 11 12 13 14 15 16 17 18 19 20 21 22 23 24 25 26 27 28 29 30 31 32 33 34 35 36 37 38 39 40 41 42 43 44 45 46 47 48 49 50
000
ASUS43 KLSX 201657
RWRMO

WEATHER SUMMARY FOR MISSOURI
NATIONAL WEATHER SERVICE SPRINGFIELD MO
1200 PM CDT SUN MAY 20 2018

NOTE: "FAIR" INDICATES FEW OR NO CLOUDS BELOW 12,000 FEET WITH NO
       SIGNIFICANT WEATHER AND/OR OBSTRUCTIONS TO VISIBILITY.
       CURRENT SKY AND/OR WEATHER CONDITIONS ARE NOT AVAILABLE FOR
       CHILLICOTHE AND FARMINGTON.

MOZ001>031-035>038-043-044-053-054-201800-
...NORTHERN AND WESTERN MISSOURI...

CITY           SKY/WX    TMP DP  RH WIND       PRES   REMARKS
KANSAS CTY INT CLOUDY    68  64  87 NW7       30.06S
LEE`S SUMMIT   LGT RAIN  69  66  90 N7        30.06R
ST JOSEPH      CLOUDY    68  65  90 W3        30.07F
CHILLICOTHE      N/A     71  64  78 VRB5      30.07F

$$
MOZ066>068-077>081-088>096-101>105-201800-
...SOUTHWEST MISSOURI...

CITY           SKY/WX    TMP DP  RH WIND       PRES   REMARKS
SPRINGFIELD    MOSUNNY   73  62  68 E10       30.08F
JOPLIN         MOSUNNY   73  65  75 E9        30.05R
BRANSON        CLOUDY    73  64  73 NE5       30.11F

$$
MOZ032>034-039>042-045>050-055>058-069>072-201800-
...CENTRAL MISSOURI...

CITY           SKY/WX    TMP DP  RH WIND       PRES   REMARKS
COLUMBIA       NOT AVBL
JEFFERSON CITY MOSUNNY   70  64  81 SE6       30.08F
ROLLA          CLOUDY    69  64  84 NE10      30.12F
SEDALIA        CLOUDY    73  66  78 E5        30.07S
WARRENSBURG    MOSUNNY   68  63  83 NE3       30.06R

$$
MOZ051-052-059>065-201800-
...EAST CENTRAL MISSOURI...

CITY           SKY/WX    TMP DP  RH WIND       PRES   REMARKS
ST LOUIS INTL  LGT RAIN  70  67  90 W6        30.16S

$$
MOZ072>076-082>087-097>100-106>115-201800-
...SOUTH CENTRAL AND SOUTHEAST MISSOURI...

CITY           SKY/WX    TMP DP  RH WIND       PRES   REMARKS
CAPE GIRARDEAU PTSUNNY   80  68  66 S6        30.10S
POPLAR BLUFF   PTSUNNY   80  71  74 E6        30.09S
WEST PLAINS    PTSUNNY   76  65  68 NE10      30.13F

$$



USA.gov is the U.S. government's official web portal to all federal, state and local government web resources and services.